TimeEST,TemperatureF,Dew PointF,Humidity,Sea Level PressureIn,VisibilityMPH,Wind Direction,Wind SpeedMPH,Gust SpeedMPH,PrecipitationIn,Events,Conditions,WindDirDegrees,DateUTC
12:52 AM,21.9,18.0,85,30.08,6.0,WSW,6.9,-,N/A,,Overcast,240,2013-01-26 05:52:00
1:52 AM,21.9,18.0,85,30.09,7.0,WSW,9.2,-,N/A,,Overcast,250,2013-01-26 06:52:00
2:52 AM,21.9,19.0,89,30.12,5.0,WSW,9.2,-,0.00,Snow,Light Snow,250,2013-01-26 07:52:00
3:52 AM,21.9,19.0,89,30.13,4.0,West,6.9,-,0.00,,Overcast,270,2013-01-26 08:52:00
4:52 AM,21.9,19.0,89,30.14,5.0,West,6.9,-,N/A,,Overcast,280,2013-01-26 09:52:00
5:52 AM,23.0,18.0,81,30.16,7.0,WNW,8.1,-,N/A,,Overcast,300,2013-01-26 10:52:00
6:52 AM,21.9,17.1,82,30.20,8.0,WNW,6.9,-,N/A,,Overcast,290,2013-01-26 11:52:00
7:52 AM,21.9,16.0,78,30.23,8.0,WNW,8.1,-,0.00,,Overcast,300,2013-01-26 12:52:00
8:52 AM,21.9,16.0,78,30.25,6.0,West,8.1,-,0.00,,Haze,280,2013-01-26 13:52:00
9:52 AM,23.0,16.0,74,30.28,8.0,WNW,9.2,-,N/A,,Overcast,300,2013-01-26 14:52:00
10:52 AM,24.1,16.0,71,30.31,10.0,WNW,12.7,-,N/A,,Overcast,290,2013-01-26 15:52:00
11:52 AM,25.0,10.9,55,30.34,10.0,NW,11.5,-,N/A,,Clear,310,2013-01-26 16:52:00
12:52 PM,25.0,10.9,55,30.34,10.0,WNW,10.4,20.7,0.00,,Mostly Cloudy,300,2013-01-26 17:52:00
1:52 PM,25.0,10.9,55,30.34,10.0,NW,11.5,-,N/A,,Overcast,310,2013-01-26 18:52:00
2:52 PM,25.0,12.0,58,30.34,10.0,NNW,10.4,-,N/A,,Overcast,330,2013-01-26 19:52:00
3:52 PM,26.1,12.9,58,30.36,10.0,NNW,5.8,-,N/A,,Overcast,340,2013-01-26 20:52:00
4:52 PM,26.1,12.9,58,30.38,10.0,NNW,5.8,-,N/A,,Overcast,330,2013-01-26 21:52:00
5:52 PM,25.0,14.0,63,30.40,10.0,Calm,Calm,-,N/A,,Overcast,0,2013-01-26 22:52:00
6:52 PM,24.1,14.0,65,30.44,10.0,Calm,Calm,-,N/A,,Overcast,0,2013-01-26 23:52:00
7:52 PM,21.9,12.9,68,30.43,10.0,Calm,Calm,-,N/A,,Overcast,0,2013-01-27 00:52:00
8:52 PM,17.1,10.9,77,30.45,10.0,Calm,Calm,-,N/A,,Clear,0,2013-01-27 01:52:00
9:52 PM,16.0,10.0,77,30.45,10.0,Calm,Calm,-,N/A,,Clear,0,2013-01-27 02:52:00
10:52 PM,18.0,12.9,81,30.46,10.0,Calm,Calm,-,N/A,,Clear,0,2013-01-27 03:52:00
11:52 PM,19.0,12.0,74,30.47,10.0,Calm,Calm,-,N/A,,Partly Cloudy,0,2013-01-27 04:52:00